AirNav   TITAN Aviation Fuels
 
 1562 users online  

II13 Sugar Creek Air Park
Markleville, Indiana, USA

GOING TO MARKLEVILLE?


FAA INFORMATION EFFECTIVE 06 OCTOBER 2022

Location

FAA Identifier: II13
Lat/Long: 39-55-13.0000N 085-35-55.0000W
39-55.216667N 085-35.916667W
39.9202778,-85.5986111
(estimated)
Elevation: 1000 ft. / 305 m (estimated)
From city: 4 miles S of MARKLEVILLE, IN
Time zone: UTC -4 (UTC -5 during Standard Time)
Zip code: 47384

Airport Operations

Airport use: Private use. Permission required prior to landing
Activation date: 02/2008
Control tower: no
ARTCC: INDIANAPOLIS CENTER
FSS: TERRE HAUTE FLIGHT SERVICE STATION
Attendance: UNATNDD
Wind indicator: yes
Segmented circle: no

Airport Communications

WX AWOS-3 at AID (11 nm N): 128.55 (765-442-1245)
WX AWOS-3 at MQJ (15 nm W): 124.175 (317-335-3037)

Nearby radio navigation aids

VOR radial/distance  VOR name  Freq  Var
SHBr030/20.2SHELBYVILLE VOR/DME116.1501E
MIEr209/21.2MUNCIE VOR/DME114.4003W
MZZr177/34.6MARION VOR/DME108.6003W
VHPr079/36.0BRICKYARD VORTAC116.3001E

 
NDB name  Hdg/Dist  Freq  Var  ID
VIDEO207/9.839403WAI .- ..
NEW CASTLE287/13.138506WUWL ..- .-- .-..
METROPOLITAN096/20.833803WUMP ..- -- .--.
BATESVILLE340/37.825405WHLB .... .-.. -...

Airport Services

Runway Information

Runway 18/36

Dimensions: 1870 x 150 ft. / 570 x 46 m
Surface: turf
RUNWAY 18  RUNWAY 36
Traffic pattern: leftleft

Airport Ownership and Management from official FAA records

Ownership: Privately-owned
Owner: JEFF ROBERT & PHILLIP JONES
5968 CARROLL RD
INDIANAPOLIS, IN 46235
Phone 317-979-0707
Manager: JEFF ROBERTS
5968 CARROL RD
INDIANAPOLIS, IN 46235
Phone 317-326-3890

Airport Operational Statistics

Aircraft based on the field: 1
Single engine airplanes: 1
    

Additional Remarks

FOR CD CTC INDIANAPOLIS APCH AT 317-227-5743.

Instrument Procedures

There are no published instrument procedures at II13.

Some nearby airports with instrument procedures:

KAID - Anderson Municipal Airport-Darlington Field (11 nm N)
KUWL - New Castle Henry County Airport / Marlatt Field (13 nm E)
KMQJ - Indianapolis Regional Airport (15 nm W)
KUMP - Indianapolis Metro Airport (21 nm W)
KMIE - Delaware County Regional Airport (21 nm NE)
 
Loc | Ops | Rwys | IFR | FBO | Links
Com | Nav | Svcs | Stats | Notes
Aerial photo
No photo
 
Sectional chart

 
Airport distance calculator
Flying to Sugar Creek Air Park? Find the distance to fly.

From to II13

Sunrise and sunset
Times for 07-Oct-2022
 Local
(UTC-4)
 Zulu
(UTC)
Morning civil twilight07:1911:19
Sunrise07:4611:46
Sunset19:1523:15
Evening civil twilight19:4223:42

Current date and time
Zulu (UTC)  07-Oct-2022 16:03:41
Local (UTC-4)  07-Oct-2022 12:03:41
 
METAR
KAID 
12nm N 
071515Z AUTO 36007KT 10SM BKN021 09/02 A3029 RMK AO2 T00870017
KMQJ 
14nm W 
071555Z AUTO 31011G14KT 10SM CLR 11/03 A3030 RMK AO1
KUMP 
21nm W 
071555Z AUTO 36013G16KT 10SM CLR 12/04 A3032 RMK AO2 T01150042
KMIE 
21nm NE 
071553Z 36011G21KT 10SM OVC026 11/02 A3029 RMK AO2 SLP254 T01060017
KGEZ 
22nm SW 
071553Z AUTO 35009G18KT 10SM CLR 14/03 A3028 RMK AO2 SLP253 T01390033
TAF
KIND 
34nm W 
071120Z 0712/0818 35012G19KT P6SM BKN060 FM072300 32003KT P6SM FEW060
NOTAMs
Click for the latest NOTAMs
NOTAMs are issued by the DoD/FAA and will open in a separate window not controlled by AirNav.

 

 
 

Would you like to see your business listed on this page?

 If your business provides an interesting product or service to pilots, flight crews, aircraft, or users of the Sugar Creek Air Park, you should consider listing it here.  To start the listing process, click on the button below
 
Add a business
 

Other Pages about Sugar Creek Air Park

Update a link
 
Copyright © AirNav, LLC. All rights reserved. Privacy Policy  Contact